owner,sensor,date,latitude,longitude,vertical_datum,direction_of_sea_water_velocity,sea_water_speed,upward_sea_water_velocity,qcFlag 
TABS,ioos:station:wmo:42047:1,2013-04-01T00:00:00Z,27.8966,-93.5973,2.0,87.96694483,13.24833952,-99999.0,'11111222,11111222,99999999' 
TABS,ioos:station:wmo:42047:1,2013-04-01T00:30:00Z,27.8966,-93.5973,2.0,84.58602572,11.34059081,-99999.0,'11111222,11111222,99999999' 
TABS,ioos:station:wmo:42047:1,2013-04-01T01:00:00Z,27.8966,-93.5973,2.0,108.0878389,12.52917396,-99999.0,'11111222,11111222,99999999' 
TABS,ioos:station:wmo:42047:1,2013-04-01T01:30:00Z,27.8966,-93.5973,2.0,110.3156603,13.3931363,-99999.0,'11111222,11111222,99999999' 
TABS,ioos:station:wmo:42047:1,2013-04-01T02:00:00Z,27.8966,-93.5973,2.0,128.8659813,11.71310804,-99999.0,'11111222,11111222,99999999' 
TABS,ioos:station:wmo:42047:1,2013-04-01T02:30:00Z,27.8966,-93.5973,2.0,145.0717,8.086643309,-99999.0,'11133222,11111222,99999999' 
TABS,ioos:station:wmo:42047:1,2013-04-01T03:00:00Z,27.8966,-93.5973,2.0,130.7259587,5.977532936,-99999.0,'11133222,11111222,99999999' 
TABS,ioos:station:wmo:42047:1,2013-04-01T03:30:00Z,27.8966,-93.5973,2.0,155.0056879,4.567767507,-99999.0,'11133222,11111222,99999999' 
TABS,ioos:station:wmo:42047:1,2013-04-01T04:00:00Z,27.8966,-93.5973,2.0,90.8550954,2.010223868,-99999.0,'11133222,11111222,99999999' 
TABS,ioos:station:wmo:42047:1,2013-04-01T04:30:00Z,27.8966,-93.5973,2.0,55.82753301,1.317459677,-99999.0,'11133222,11111222,99999999' 
TABS,ioos:station:wmo:42047:1,2013-04-01T05:00:00Z,27.8966,-93.5973,2.0,3.945387462,0.872066511,-99999.0,'11133222,11111222,99999999' 
TABS,ioos:station:wmo:42047:1,2013-04-01T05:30:00Z,27.8966,-93.5973,2.0,300.6189547,2.277542535,-99999.0,'11133222,11111222,99999999' 
TABS,ioos:station:wmo:42047:1,2013-04-01T06:00:00Z,27.8966,-93.5973,2.0,337.8206089,5.907097426,-99999.0,'11133222,11111222,99999999' 
TABS,ioos:station:wmo:42047:1,2013-04-01T06:30:00Z,27.8966,-93.5973,2.0,350.5767088,9.711050407,-99999.0,'11133222,11111222,99999999' 
TABS,ioos:station:wmo:42047:1,2013-04-01T07:00:00Z,27.8966,-93.5973,2.0,335.7656034,11.32834498,-99999.0,'11111222,11111222,99999999' 
TABS,ioos:station:wmo:42047:1,2013-04-01T07:30:00Z,27.8966,-93.5973,2.0,358.0356947,18.96114448,-99999.0,'11111222,11111222,99999999' 
TABS,ioos:station:wmo:42047:1,2013-04-01T08:00:00Z,27.8966,-93.5973,2.0,0.642056996,16.96106424,-99999.0,'11111222,11111222,99999999' 
TABS,ioos:station:wmo:42047:1,2013-04-01T08:30:00Z,27.8966,-93.5973,2.0,8.481548731,20.06948181,-99999.0,'11111222,11111222,99999999' 
TABS,ioos:station:wmo:42047:1,2013-04-01T09:00:00Z,27.8966,-93.5973,2.0,14.15461721,18.8111031,-99999.0,'11111222,11111222,99999999' 
TABS,ioos:station:wmo:42047:1,2013-04-01T09:30:00Z,27.8966,-93.5973,2.0,16.4000029,21.99486531,-99999.0,'11111222,11111222,99999999' 
TABS,ioos:station:wmo:42047:1,2013-04-01T10:00:00Z,27.8966,-93.5973,2.0,19.8714317,21.44698114,-99999.0,'11111222,11111222,99999999' 
TABS,ioos:station:wmo:42047:1,2013-04-01T10:30:00Z,27.8966,-93.5973,2.0,20.3716713,21.8037084,-99999.0,'11111222,11111222,99999999' 
TABS,ioos:station:wmo:42047:1,2013-04-01T11:00:00Z,27.8966,-93.5973,2.0,27.84861842,21.36428094,-99999.0,'11111222,11111222,99999999' 
TABS,ioos:station:wmo:42047:1,2013-04-01T11:30:00Z,27.8966,-93.5973,2.0,27.09569959,21.73551242,-99999.0,'11111222,11111222,99999999' 
TABS,ioos:station:wmo:42047:1,2013-04-01T12:00:00Z,27.8966,-93.5973,2.0,38.60641433,25.0815171,-99999.0,'11111222,11111222,99999999' 
TABS,ioos:station:wmo:42047:1,2013-04-01T12:30:00Z,27.8966,-93.5973,2.0,49.01875699,23.71102064,-99999.0,'11111222,11111222,99999999' 
TABS,ioos:station:wmo:42047:1,2013-04-01T13:00:00Z,27.8966,-93.5973,2.0,50.93720803,21.53377115,-99999.0,'11111222,11111222,99999999' 
TABS,ioos:station:wmo:42047:1,2013-04-01T13:30:00Z,27.8966,-93.5973,2.0,17.72681326,18.16234842,-99999.0,'11111222,11111222,99999999' 
TABS,ioos:station:wmo:42047:1,2013-04-01T14:00:00Z,27.8966,-93.5973,2.0,32.26812355,16.6516816,-99999.0,'11111222,11111222,99999999' 
TABS,ioos:station:wmo:42047:1,2013-04-01T14:30:00Z,27.8966,-93.5973,2.0,38.40127196,15.56755922,-99999.0,'11111222,11111222,99999999' 
TABS,ioos:station:wmo:42047:1,2013-04-01T15:00:00Z,27.8966,-93.5973,2.0,50.22619746,13.8958447,-99999.0,'11111222,11111222,99999999' 
TABS,ioos:station:wmo:42047:1,2013-04-01T15:30:00Z,27.8966,-93.5973,2.0,75.43688395,10.02199581,-99999.0,'11111222,11111222,99999999' 
TABS,ioos:station:wmo:42047:1,2013-04-01T16:00:00Z,27.8966,-93.5973,2.0,88.6311889,8.372389145,-99999.0,'11133222,11111222,99999999' 
TABS,ioos:station:wmo:42047:1,2013-04-01T16:30:00Z,27.8966,-93.5973,2.0,101.0599811,7.193608274,-99999.0,'11133222,11111222,99999999' 
TABS,ioos:station:wmo:42047:1,2013-04-01T17:00:00Z,27.8966,-93.5973,2.0,105.9280801,4.554876508,-99999.0,'11133222,11111222,99999999' 
TABS,ioos:station:wmo:42047:1,2013-04-01T17:30:00Z,27.8966,-93.5973,2.0,162.0306918,2.722811047,-99999.0,'11133222,11111222,99999999' 
TABS,ioos:station:wmo:42047:1,2013-04-01T18:00:00Z,27.8966,-93.5973,2.0,187.606348,6.345841158,-99999.0,'11133222,11111222,99999999' 
TABS,ioos:station:wmo:42047:1,2013-04-01T18:30:00Z,27.8966,-93.5973,2.0,189.2580877,3.232104578,-99999.0,'11133222,11111222,99999999' 
TABS,ioos:station:wmo:42047:1,2013-04-01T19:00:00Z,27.8966,-93.5973,2.0,226.797075,6.763268441,-99999.0,'11133222,11111222,99999999' 
TABS,ioos:station:wmo:42047:1,2013-04-01T19:30:00Z,27.8966,-93.5973,2.0,263.1622397,8.399738091,-99999.0,'11133222,11111222,99999999' 
TABS,ioos:station:wmo:42047:1,2013-04-01T20:00:00Z,27.8966,-93.5973,2.0,247.7704854,9.700994794,-99999.0,'11133222,11111222,99999999' 
TABS,ioos:station:wmo:42047:1,2013-04-01T20:30:00Z,27.8966,-93.5973,2.0,258.7622604,9.288067614,-99999.0,'11133222,11111222,99999999' 
TABS,ioos:station:wmo:42047:1,2013-04-01T21:00:00Z,27.8966,-93.5973,2.0,240.939458,9.964421709,-99999.0,'11133222,11111222,99999999' 
TABS,ioos:station:wmo:42047:1,2013-04-01T21:30:00Z,27.8966,-93.5973,2.0,257.240377,12.40635321,-99999.0,'11111222,11111222,99999999' 
TABS,ioos:station:wmo:42047:1,2013-04-01T22:00:00Z,27.8966,-93.5973,2.0,274.2650521,15.73356285,-99999.0,'11111222,11111222,99999999' 
TABS,ioos:station:wmo:42047:1,2013-04-01T22:30:00Z,27.8966,-93.5973,2.0,291.0140909,17.28986987,-99999.0,'11111222,11111222,99999999' 
TABS,ioos:station:wmo:42047:1,2013-04-01T23:00:00Z,27.8966,-93.5973,2.0,310.1911957,19.23029381,-99999.0,'11111222,11111222,99999999' 
TABS,ioos:station:wmo:42047:1,2013-04-01T23:30:00Z,27.8966,-93.5973,2.0,311.399046,17.22377717,-99999.0,'11111222,11111222,99999999' 
TABS,ioos:station:wmo:42047:1,2013-04-02T11:00:00Z,27.8966,-93.5973,2.0,88.622198787796,10.81312628244,-99999.0,'1111122,1111122,1199999999' 
TABS,ioos:station:wmo:42047:1,2013-04-02T11:30:00Z,27.8966,-93.5973,2.0,99.901860693572,11.572385233823,-99999.0,'1111122,1111122,1199999999' 
TABS,ioos:station:wmo:42047:1,2013-04-02T12:00:00Z,27.8966,-93.5973,2.0,92.828249094211,12.565305408147,-99999.0,'1111122,1111122,1199999999' 
TABS,ioos:station:wmo:42047:1,2013-04-02T12:30:00Z,27.8966,-93.5973,2.0,84.921526126042,11.183903611888,-99999.0,'1111122,1111122,1199999999' 
TABS,ioos:station:wmo:42047:1,2013-04-02T13:00:00Z,27.8966,-93.5973,2.0,116.94958083666,9.9954489644038,-99999.0,'1111122,1111122,1199999999' 
TABS,ioos:station:wmo:42047:1,2013-04-02T13:30:00Z,27.8966,-93.5973,2.0,88.969302567572,6.6710793729351,-99999.0,'1111122,1111122,1199999999' 
TABS,ioos:station:wmo:42047:1,2013-04-02T14:00:00Z,27.8966,-93.5973,2.0,90.0,3.64,-99999.0,'1111122,1111122,1199999999' 
TABS,ioos:station:wmo:42047:1,2013-04-02T14:30:00Z,27.8966,-93.5973,2.0,63.12607968817,6.6367461907173,-99999.0,'1111122,1111122,1199999999' 
TABS,ioos:station:wmo:42047:1,2013-04-02T15:00:00Z,27.8966,-93.5973,2.0,18.576594466404,5.1165808896176,-99999.0,'1111122,1111122,1199999999' 
TABS,ioos:station:wmo:42047:1,2013-04-02T15:30:00Z,27.8966,-93.5973,2.0,2.2326228974956,5.1338971551834,-99999.0,'1111122,1111122,1199999999' 
TABS,ioos:station:wmo:42047:1,2013-04-02T16:00:00Z,27.8966,-93.5973,2.0,351.78721981071,3.9202040763205,-99999.0,'1111122,1111122,1199999999' 
TABS,ioos:station:wmo:42047:1,2013-04-02T16:30:00Z,27.8966,-93.5973,2.0,59.581901061342,3.0613885738338,-99999.0,'1111122,1111122,1199999999' 
TABS,ioos:station:wmo:42047:1,2013-04-02T17:00:00Z,27.8966,-93.5973,2.0,14.404608883875,4.9041716935686,-99999.0,'1111122,1111122,1199999999' 
TABS,ioos:station:wmo:42047:1,2013-04-02T17:30:00Z,27.8966,-93.5973,2.0,12.144278049567,6.4646732322678,-99999.0,'1111122,1111122,1199999999' 
TABS,ioos:station:wmo:42047:1,2013-04-02T18:00:00Z,27.8966,-93.5973,2.0,355.07684931292,7.4575129902669,-99999.0,'1111122,1111122,1199999999' 
TABS,ioos:station:wmo:42047:1,2013-04-02T18:30:00Z,27.8966,-93.5973,2.0,7.68722272455,6.9524815713528,-99999.0,'1111122,1111122,1199999999' 
TABS,ioos:station:wmo:42047:1,2013-04-02T19:00:00Z,27.8966,-93.5973,2.0,7.1624564085999,5.6944358807524,-99999.0,'1111122,1111122,1199999999' 
TABS,ioos:station:wmo:42047:1,2013-04-02T19:30:00Z,27.8966,-93.5973,2.0,4.0009394837528,5.3029237218727,-99999.0,'1111122,1111122,1199999999' 
TABS,ioos:station:wmo:42047:1,2013-04-02T20:00:00Z,27.8966,-93.5973,2.0,37.874983651098,3.3065087327875,-99999.0,'1111122,1111122,1199999999' 
TABS,ioos:station:wmo:42047:1,2013-04-02T20:30:00Z,27.8966,-93.5973,2.0,6.5849692964418,7.2377482686261,-99999.0,'1111122,1111122,1199999999' 
TABS,ioos:station:wmo:42047:1,2013-04-02T21:00:00Z,27.8966,-93.5973,2.0,11.546690545927,9.4921019800674,-99999.0,'1111122,1111122,1199999999' 
TABS,ioos:station:wmo:42047:1,2013-04-02T21:30:00Z,27.8966,-93.5973,2.0,41.310385518341,7.3620988855081,-99999.0,'1111122,1111122,1199999999' 
TABS,ioos:station:wmo:42047:1,2013-04-02T22:00:00Z,27.8966,-93.5973,2.0,30.077302313427,8.9790255596028,-99999.0,'1111122,1111122,1199999999' 
TABS,ioos:station:wmo:42047:1,2013-04-02T22:30:00Z,27.8966,-93.5973,2.0,31.944111604109,8.92094725912,-99999.0,'1111122,1111122,1199999999' 
TABS,ioos:station:wmo:42047:1,2013-04-02T23:00:00Z,27.8966,-93.5973,2.0,40.610384884419,6.8365634641975,-99999.0,'1111122,1111122,1199999999' 
TABS,ioos:station:wmo:42047:1,2013-04-02T23:30:00Z,27.8966,-93.5973,2.0,41.453016966061,12.915297131696,-99999.0,'1111122,1111122,1199999999' 
TABS,ioos:station:wmo:42047:1,2013-04-03T00:00:00Z,27.8966,-93.5973,2.0,46.90502318,9.572444829,-99999.0,'11133222,11111222,99999999' 
TABS,ioos:station:wmo:42047:1,2013-04-03T00:30:00Z,27.8966,-93.5973,2.0,48.18850896,13.09467449,-99999.0,'11111222,11111222,99999999' 
TABS,ioos:station:wmo:42047:1,2013-04-03T01:00:00Z,27.8966,-93.5973,2.0,91.00655492,13.66210818,-99999.0,'11111222,11111222,99999999' 
TABS,ioos:station:wmo:42047:1,2013-04-03T01:30:00Z,27.8966,-93.5973,2.0,110.6869448,11.26641025,-99999.0,'11111222,11111222,99999999' 
TABS,ioos:station:wmo:42047:1,2013-04-03T02:00:00Z,27.8966,-93.5973,2.0,143.7029997,13.59868008,-99999.0,'11111222,11111222,99999999' 
TABS,ioos:station:wmo:42047:1,2013-04-03T02:30:00Z,27.8966,-93.5973,2.0,99.35511968,18.45546261,-99999.0,'11111222,11111222,99999999' 
TABS,ioos:station:wmo:42047:1,2013-04-03T03:00:00Z,27.8966,-93.5973,2.0,125.0439805,17.13670038,-99999.0,'11111222,11111222,99999999' 
TABS,ioos:station:wmo:42047:1,2013-04-03T03:30:00Z,27.8966,-93.5973,2.0,112.2864361,19.30186519,-99999.0,'11111222,11111222,99999999' 
TABS,ioos:station:wmo:42047:1,2013-04-03T04:00:00Z,27.8966,-93.5973,2.0,170.6333015,4.915536593,-99999.0,'11133222,11111222,99999999' 
TABS,ioos:station:wmo:42047:1,2013-04-03T04:30:00Z,27.8966,-93.5973,2.0,153.7764229,5.250380939,-99999.0,'11133222,11111222,99999999' 
TABS,ioos:station:wmo:42047:1,2013-04-03T05:00:00Z,27.8966,-93.5973,2.0,187.4886712,2.148324929,-99999.0,'11133222,11111222,99999999' 
TABS,ioos:station:wmo:42047:1,2013-04-03T05:30:00Z,27.8966,-93.5973,2.0,114.2440041,6.404880951,-99999.0,'11133222,11111222,99999999' 
TABS,ioos:station:wmo:42047:1,2013-04-03T06:00:00Z,27.8966,-93.5973,2.0,198.758396,1.119464158,-99999.0,'11133222,11111222,99999999' 
TABS,ioos:station:wmo:42047:1,2013-04-03T06:30:00Z,27.8966,-93.5973,2.0,34.82068655,5.201326754,-99999.0,'11133222,11111222,99999999' 
TABS,ioos:station:wmo:42047:1,2013-04-03T07:00:00Z,27.8966,-93.5973,2.0,42.90995096,3.877524984,-99999.0,'11133222,11111222,99999999' 
TABS,ioos:station:wmo:42047:1,2013-04-03T07:30:00Z,27.8966,-93.5973,2.0,47.19773113,12.53915468,-99999.0,'11111222,11111222,99999999' 
TABS,ioos:station:wmo:42047:1,2013-04-03T08:00:00Z,27.8966,-93.5973,2.0,58.583037,21.67809955,-99999.0,'11111222,11111222,99999999' 
TABS,ioos:station:wmo:42047:1,2013-04-03T08:30:00Z,27.8966,-93.5973,2.0,82.8664321,24.88260838,-99999.0,'11111222,11111222,99999999' 
TABS,ioos:station:wmo:42047:1,2013-04-03T09:00:00Z,27.8966,-93.5973,2.0,65.29720016,24.35917281,-99999.0,'11111222,11111222,99999999' 
TABS,ioos:station:wmo:42047:1,2013-04-03T09:30:00Z,27.8966,-93.5973,2.0,57.6094159,21.28099857,-99999.0,'11111222,11111222,99999999' 
TABS,ioos:station:wmo:42047:1,2013-04-03T10:00:00Z,27.8966,-93.5973,2.0,46.7166534,17.9402787,-99999.0,'11111222,11111222,99999999' 
TABS,ioos:station:wmo:42047:1,2013-04-03T10:30:00Z,27.8966,-93.5973,2.0,351.3923682,2.204835595,-99999.0,'11133222,11111222,99999999' 
TABS,ioos:station:wmo:42047:1,2013-04-03T11:00:00Z,27.8966,-93.5973,2.0,105.0390266,39.77223278,-99999.0,'11111222,11111222,99999999' 
TABS,ioos:station:wmo:42047:1,2013-04-03T11:30:00Z,27.8966,-93.5973,2.0,118.6436765,28.85084574,-99999.0,'11111222,11111222,99999999' 
TABS,ioos:station:wmo:42047:1,2013-04-03T12:00:00Z,27.8966,-93.5973,2.0,119.6793174,23.87174062,-99999.0,'11111222,11111222,99999999' 
TABS,ioos:station:wmo:42047:1,2013-04-03T12:30:00Z,27.8966,-93.5973,2.0,91.82052008,24.55239296,-99999.0,'11111222,11111222,99999999' 
TABS,ioos:station:wmo:42047:1,2013-04-03T13:00:00Z,27.8966,-93.5973,2.0,91.85553315,25.63344105,-99999.0,'11111222,11111222,99999999' 
TABS,ioos:station:wmo:42047:1,2013-04-03T13:30:00Z,27.8966,-93.5973,2.0,106.2640745,23.45880005,-99999.0,'11111222,11111222,99999999' 
TABS,ioos:station:wmo:42047:1,2013-04-03T14:00:00Z,27.8966,-93.5973,2.0,132.5719145,22.86714893,-99999.0,'11111222,11111222,99999999' 
TABS,ioos:station:wmo:42047:1,2013-04-03T14:30:00Z,27.8966,-93.5973,2.0,137.9943828,23.28146044,-99999.0,'11111222,11111222,99999999' 
TABS,ioos:station:wmo:42047:1,2013-04-03T15:00:00Z,27.8966,-93.5973,2.0,143.7980904,23.66960921,-99999.0,'11111222,11111222,99999999' 
TABS,ioos:station:wmo:42047:1,2013-04-03T15:30:00Z,27.8966,-93.5973,2.0,141.9073755,22.87120679,-99999.0,'11111222,11111222,99999999' 
TABS,ioos:station:wmo:42047:1,2013-04-03T16:00:00Z,27.8966,-93.5973,2.0,133.4045399,21.33461038,-99999.0,'11111222,11111222,99999999' 
TABS,ioos:station:wmo:42047:1,2013-04-03T16:30:00Z,27.8966,-93.5973,2.0,123.5229687,20.93170084,-99999.0,'11111222,11111222,99999999' 
TABS,ioos:station:wmo:42047:1,2013-04-03T17:00:00Z,27.8966,-93.5973,2.0,100.8099192,20.90089233,-99999.0,'11111222,11111222,99999999' 
TABS,ioos:station:wmo:42047:1,2013-04-03T17:30:00Z,27.8966,-93.5973,2.0,86.60116581,25.97569056,-99999.0,'11111222,11111222,99999999' 
TABS,ioos:station:wmo:42047:1,2013-04-03T18:00:00Z,27.8966,-93.5973,2.0,92.60684343,30.34139911,-99999.0,'11111222,11111222,99999999' 
TABS,ioos:station:wmo:42047:1,2013-04-03T18:30:00Z,27.8966,-93.5973,2.0,93.41196163,29.57241958,-99999.0,'11111222,11111222,99999999' 
TABS,ioos:station:wmo:42047:1,2013-04-03T19:00:00Z,27.8966,-93.5973,2.0,118.7279884,27.60827774,-99999.0,'11111222,11111222,99999999' 
TABS,ioos:station:wmo:42047:1,2013-04-03T19:30:00Z,27.8966,-93.5973,2.0,126.7314056,25.66607488,-99999.0,'11111222,11111222,99999999' 
TABS,ioos:station:wmo:42047:1,2013-04-03T20:00:00Z,27.8966,-93.5973,2.0,134.2775811,24.67998784,-99999.0,'11111222,11111222,99999999' 
TABS,ioos:station:wmo:42047:1,2013-04-03T20:30:00Z,27.8966,-93.5973,2.0,139.8201815,20.78466983,-99999.0,'11111222,11111222,99999999' 
TABS,ioos:station:wmo:42047:1,2013-04-03T21:00:00Z,27.8966,-93.5973,2.0,138.2788734,19.03819844,-99999.0,'11111222,11111222,99999999' 
TABS,ioos:station:wmo:42047:1,2013-04-03T21:30:00Z,27.8966,-93.5973,2.0,154.8514056,17.36613947,-99999.0,'11111222,11111222,99999999' 
TABS,ioos:station:wmo:42047:1,2013-04-03T22:00:00Z,27.8966,-93.5973,2.0,146.0381917,11.11631684,-99999.0,'11111222,11111222,99999999' 
TABS,ioos:station:wmo:42047:1,2013-04-03T22:30:00Z,27.8966,-93.5973,2.0,162.1867565,13.40252215,-99999.0,'11111222,11111222,99999999' 
TABS,ioos:station:wmo:42047:1,2013-04-03T23:00:00Z,27.8966,-93.5973,2.0,163.7342437,12.78160006,-99999.0,'11111222,11111222,99999999' 
TABS,ioos:station:wmo:42047:1,2013-04-03T23:30:00Z,27.8966,-93.5973,2.0,161.1466749,11.69757667,-99999.0,'11111222,11111222,99999999' 
TABS,ioos:station:wmo:42047:1,2013-04-04T00:00:00Z,27.8966,-93.5973,2.0,155.8832485,12.45732716,-99999.0,'11111222,11111222,99999999' 
TABS,ioos:station:wmo:42047:1,2013-04-04T00:30:00Z,27.8966,-93.5973,2.0,164.3336548,10.14694535,-99999.0,'11111222,11111222,99999999' 
TABS,ioos:station:wmo:42047:1,2013-04-04T01:00:00Z,27.8966,-93.5973,2.0,170.2884826,7.943834087,-99999.0,'11133222,11111222,99999999' 
TABS,ioos:station:wmo:42047:1,2013-04-04T01:30:00Z,27.8966,-93.5973,2.0,169.3849974,7.274482799,-99999.0,'11133222,11111222,99999999' 
TABS,ioos:station:wmo:42047:1,2013-04-04T02:00:00Z,27.8966,-93.5973,2.0,191.4334441,11.80425771,-99999.0,'11111222,11111222,99999999' 
TABS,ioos:station:wmo:42047:1,2013-04-04T02:30:00Z,27.8966,-93.5973,2.0,205.5556722,11.17312848,-99999.0,'11111222,11111222,99999999' 
TABS,ioos:station:wmo:42047:1,2013-04-04T03:00:00Z,27.8966,-93.5973,2.0,204.9275982,12.05285443,-99999.0,'11111222,11111222,99999999' 
TABS,ioos:station:wmo:42047:1,2013-04-04T03:30:00Z,27.8966,-93.5973,2.0,212.1599911,12.15504011,-99999.0,'11111222,11111222,99999999' 
TABS,ioos:station:wmo:42047:1,2013-04-04T04:00:00Z,27.8966,-93.5973,2.0,211.8319475,7.015098004,-99999.0,'11133222,11111222,99999999' 
TABS,ioos:station:wmo:42047:1,2013-04-04T04:30:00Z,27.8966,-93.5973,2.0,210.9875071,8.177053259,-99999.0,'11133222,11111222,99999999' 
TABS,ioos:station:wmo:42047:1,2013-04-04T05:00:00Z,27.8966,-93.5973,2.0,226.7219249,7.293565657,-99999.0,'11133222,11111222,99999999' 
TABS,ioos:station:wmo:42047:1,2013-04-04T05:30:00Z,27.8966,-93.5973,2.0,253.2063145,8.168353567,-99999.0,'11133222,11111222,99999999' 
TABS,ioos:station:wmo:42047:1,2013-04-04T06:00:00Z,27.8966,-93.5973,2.0,253.7562089,8.186800352,-99999.0,'11133222,11111222,99999999' 
TABS,ioos:station:wmo:42047:1,2013-04-04T06:30:00Z,27.8966,-93.5973,2.0,273.3957995,10.46837619,-99999.0,'11111222,11111222,99999999' 
TABS,ioos:station:wmo:42047:1,2013-04-04T07:00:00Z,27.8966,-93.5973,2.0,296.0105058,7.388315099,-99999.0,'11133222,11111222,99999999' 
TABS,ioos:station:wmo:42047:1,2013-04-04T07:30:00Z,27.8966,-93.5973,2.0,311.5594668,8.953971186,-99999.0,'11133222,11111222,99999999' 
TABS,ioos:station:wmo:42047:1,2013-04-04T08:00:00Z,27.8966,-93.5973,2.0,301.5160348,11.03816108,-99999.0,'11111222,11111222,99999999' 
TABS,ioos:station:wmo:42047:1,2013-04-04T08:30:00Z,27.8966,-93.5973,2.0,335.8855015,8.786836746,-99999.0,'11133222,11111222,99999999' 
TABS,ioos:station:wmo:42047:1,2013-04-04T09:00:00Z,27.8966,-93.5973,2.0,352.4867005,13.53622178,-99999.0,'11111222,11111222,99999999' 
TABS,ioos:station:wmo:42047:1,2013-04-04T09:30:00Z,27.8966,-93.5973,2.0,12.9721145,11.35990317,-99999.0,'11111222,11111222,99999999' 
TABS,ioos:station:wmo:42047:1,2013-04-04T10:00:00Z,27.8966,-93.5973,2.0,13.73238763,18.28259281,-99999.0,'11111222,11111222,99999999' 
TABS,ioos:station:wmo:42047:1,2013-04-04T10:30:00Z,27.8966,-93.5973,2.0,21.36415975,17.5134377,-99999.0,'11111222,11111222,99999999' 
TABS,ioos:station:wmo:42047:1,2013-04-04T11:00:00Z,27.8966,-93.5973,2.0,21.72925037,22.06805157,-99999.0,'11111222,11111222,99999999' 
TABS,ioos:station:wmo:42047:1,2013-04-04T11:30:00Z,27.8966,-93.5973,2.0,28.79889466,25.01377421,-99999.0,'11111222,11111222,99999999' 
TABS,ioos:station:wmo:42047:1,2013-04-04T12:00:00Z,27.8966,-93.5973,2.0,33.01851296,26.26131185,-99999.0,'11111222,11111222,99999999' 
TABS,ioos:station:wmo:42047:1,2013-04-04T12:30:00Z,27.8966,-93.5973,2.0,50.36101233,32.16556078,-99999.0,'11111222,11111222,99999999' 
TABS,ioos:station:wmo:42047:1,2013-04-04T13:00:00Z,27.8966,-93.5973,2.0,57.38937272,38.42812772,-99999.0,'11111222,11111222,99999999' 
TABS,ioos:station:wmo:42047:1,2013-04-04T13:30:00Z,27.8966,-93.5973,2.0,61.32964144,40.41514196,-99999.0,'11111222,11111222,99999999' 
TABS,ioos:station:wmo:42047:1,2013-04-04T14:00:00Z,27.8966,-93.5973,2.0,66.31100992,42.3373712,-99999.0,'11111222,11111222,99999999' 
TABS,ioos:station:wmo:42047:1,2013-04-04T14:30:00Z,27.8966,-93.5973,2.0,68.0257764,40.00638574,-99999.0,'11111222,11111222,99999999' 
TABS,ioos:station:wmo:42047:1,2013-04-04T15:00:00Z,27.8966,-93.5973,2.0,70.27380424,43.64102771,-99999.0,'11111222,11111222,99999999' 
TABS,ioos:station:wmo:42047:1,2013-04-04T15:30:00Z,27.8966,-93.5973,2.0,73.36585777,46.39138821,-99999.0,'11111222,11111222,99999999' 
TABS,ioos:station:wmo:42047:1,2013-04-04T16:00:00Z,27.8966,-93.5973,2.0,82.64846664,44.23361278,-99999.0,'11111222,11111222,99999999' 
TABS,ioos:station:wmo:42047:1,2013-04-04T16:30:00Z,27.8966,-93.5973,2.0,85.59555255,45.83536189,-99999.0,'11111222,11111222,99999999' 
TABS,ioos:station:wmo:42047:1,2013-04-04T17:00:00Z,27.8966,-93.5973,2.0,92.00206215,42.93620966,-99999.0,'11111222,11111222,99999999' 
TABS,ioos:station:wmo:42047:1,2013-04-04T17:30:00Z,27.8966,-93.5973,2.0,88.95140215,44.80750384,-99999.0,'11111222,11111222,99999999' 
TABS,ioos:station:wmo:42047:1,2013-04-04T18:00:00Z,27.8966,-93.5973,2.0,91.43137022,39.63236682,-99999.0,'11111222,11111222,99999999' 
TABS,ioos:station:wmo:42047:1,2013-04-04T18:30:00Z,27.8966,-93.5973,2.0,88.33845484,39.31653087,-99999.0,'11111222,11111222,99999999' 
TABS,ioos:station:wmo:42047:1,2013-04-04T19:00:00Z,27.8966,-93.5973,2.0,91.2616823,38.14924901,-99999.0,'11111222,11111222,99999999' 
TABS,ioos:station:wmo:42047:1,2013-04-04T19:30:00Z,27.8966,-93.5973,2.0,95.04199491,37.77617371,-99999.0,'11111222,11111222,99999999' 
TABS,ioos:station:wmo:42047:1,2013-04-04T20:00:00Z,27.8966,-93.5973,2.0,95.79350392,34.37558581,-99999.0,'11111222,11111222,99999999' 
TABS,ioos:station:wmo:42047:1,2013-04-04T20:30:00Z,27.8966,-93.5973,2.0,92.63825943,34.97707392,-99999.0,'11111222,11111222,99999999' 
TABS,ioos:station:wmo:42047:1,2013-04-04T21:00:00Z,27.8966,-93.5973,2.0,98.62960502,34.38932392,-99999.0,'11111222,11111222,99999999' 
TABS,ioos:station:wmo:42047:1,2013-04-04T21:30:00Z,27.8966,-93.5973,2.0,95.03000856,33.76001333,-99999.0,'11111222,11111222,99999999' 
TABS,ioos:station:wmo:42047:1,2013-04-04T22:00:00Z,27.8966,-93.5973,2.0,97.59584927,30.94150934,-99999.0,'11111222,11111222,99999999' 
TABS,ioos:station:wmo:42047:1,2013-04-04T22:30:00Z,27.8966,-93.5973,2.0,103.2661126,26.88750267,-99999.0,'11111222,11111222,99999999' 
TABS,ioos:station:wmo:42047:1,2013-04-04T23:00:00Z,27.8966,-93.5973,2.0,94.3164132,27.23725574,-99999.0,'11111222,11111222,99999999' 
TABS,ioos:station:wmo:42047:1,2013-04-04T23:30:00Z,27.8966,-93.5973,2.0,103.3423527,23.83329814,-99999.0,'11111222,11111222,99999999' 
TABS,ioos:station:wmo:42047:1,2013-04-05T00:00:00Z,27.8966,-93.5973,2.0,94.77394294,23.07003468,-99999.0,'11111222,11111222,99999999' 
TABS,ioos:station:wmo:42047:1,2013-04-05T00:30:00Z,27.8966,-93.5973,2.0,100.0934978,19.40025773,-99999.0,'11111222,11111222,99999999' 
TABS,ioos:station:wmo:42047:1,2013-04-05T01:00:00Z,27.8966,-93.5973,2.0,88.41535457,22.05843603,-99999.0,'11111222,11111222,99999999' 
TABS,ioos:station:wmo:42047:1,2013-04-05T01:30:00Z,27.8966,-93.5973,2.0,92.01891719,19.30198176,-99999.0,'11111222,11111222,99999999' 
TABS,ioos:station:wmo:42047:1,2013-04-05T02:00:00Z,27.8966,-93.5973,2.0,92.36838505,17.66508987,-99999.0,'11111222,11111222,99999999' 